Location: �clusier
(49.9361°N, 2.7869°E)
Time: 04:42:52
(UTC+00:00)

Cosmos 1943 Rocket - Pass Details

Date: 01 November 2021
Orbit: 811 x 844 km, 71.0° (Epoch: 07 December)

Event Time Altitude Azimuth Distance (km) Brightness Sun altitude
Rises 19:34:48 0° 331° (NNW) 3,414 5.9 -30.7°
Reaches altitude 10° 19:37:16 10° 333° (NNW) 2,474 5.1 -31.1°
Enters shadow 19:41:01 42° 343° (NNW) 1,183 3.1 -31.7°
